AP893 Weather Reports


time (UTC)temp
F
wind
direction
speed
knots
gust
knots
rain 1hr
in
rain 24hr
in
rain mn
in
humidity
%
barometer
mb
20260505053009 50 0 0.0 0.0 0.00 0.25 0.25 100 1016.0
20260505041010 50 0 0.0 0.0 0.00 0.25 0.25 100 1016.0
20260505040009 50 0 0.0 0.0 0.00 0.25 0.25 100 1016.0
20260505035009 51 0 0.0 0.0 0.00 0.25 0.25 100 1015.9
20260505034010 51 0 0.0 0.0 0.00 0.25 0.25 100 1015.7
20260505033009 51 0 0.0 0.0 0.00 0.25 0.25 100 1015.6
20260505031010 51 0 0.0 0.0 0.13 0.25 0.25 99 1015.6
20260505030009 52 0 0.0 0.0 0.13 0.25 0.25 100 1015.5
20260505025010 52 0 0.0 0.0 0.13 0.25 0.25 100 1015.6
20260505024011 52 0 0.0 0.0 0.13 0.25 0.25 100 1015.5
20260505022046 52 1 0.0 0.0 0.13 0.25 0.25 98 1015.8
20260505021012 52 1 0.0 0.0 0.00 0.12 0.12 97 1015.7
20260505020012 52 1 0.0 0.0 0.00 0.12 0.12 96 1015.7
20260505015011 52 1 0.0 0.0 0.00 0.12 0.12 95 1015.8
20260505013009 53 1 0.0 0.0 0.00 0.12 0.12 92 1015.9
20260505012011 53 357 0.9 2.6 0.00 0.12 0.12 91 1016.1
20260505011017 53 328 0.0 0.0 0.00 0.12 0.12 91 1016.1
20260505010014 53 328 0.0 0.0 0.00 0.12 0.12 91 1016.1
20260505005011 53 328 0.0 0.0 0.00 0.12 0.12 90 1016.1
20260505004014 53 328 0.0 0.0 0.00 0.12 0.12 91 1016.1
20260505002010 53 328 0.0 0.0 0.00 0.12 0.12 91 1016.2
20260505001014 53 328 0.0 0.0 0.00 0.12 0.12 91 1016.2
20260504235011 53 342 0.0 0.0 0.00 0.12 0.12 95 1016.2
20260504234010 53 342 0.0 0.0 0.00 0.12 0.12 96 1016.3
20260504233012 53 342 0.0 0.0 0.00 0.12 0.12 99 1016.4
20260504232010 53 342 0.0 0.0 0.00 0.12 0.12 100 1016.7
20260504231011 52 342 0.0 0.0 0.00 0.12 0.12 100 1016.7
20260504230011 52 342 0.0 0.0 0.00 0.12 0.12 100 1016.7
20260504225011 51 342 0.0 0.0 0.00 0.12 0.12 100 1016.7
20260504224011 51 342 0.0 0.0 0.00 0.12 0.12 100 1016.8
20260504223011 51 342 0.0 0.0 0.00 0.12 0.12 100 1016.9
20260504222010 51 342 0.0 0.0 0.00 0.12 0.12 100 1017.0
20260504221012 51 342 0.0 0.0 0.00 0.12 0.12 100 1017.0
20260504220021 51 342 0.0 0.0 0.00 0.12 0.12 100 1017.0
20260504215011 51 342 0.0 0.0 0.00 0.12 0.12 100 1017.1
20260504214011 50 342 0.0 0.0 0.00 0.12 0.12 100 1017.1
20260504213011 50 342 0.0 0.0 0.00 0.12 0.12 100 1017.1
20260504212011 50 342 0.0 0.0 0.00 0.12 0.12 100 1017.1
20260504211010 50 342 0.0 0.0 0.00 0.12 0.12 100 1017.2
20260504210010 50 342 0.0 0.0 0.00 0.12 0.12 100 1017.2
20260504204011 51 342 0.0 0.0 0.00 0.12 0.12 100 1017.0
20260504203010 51 342 0.0 0.0 0.00 0.12 0.12 100 1016.9
20260504202010 51 342 0.0 0.0 0.00 0.12 0.12 100 1016.9
20260504201011 51 342 0.0 0.0 0.00 0.12 0.12 100 1017.0
20260504200012 51 342 0.0 0.0 0.00 0.12 0.12 100 1017.0
20260504195009 51 342 0.0 7.0 0.00 0.12 0.12 100 1017.0
20260504194010 51 0 0.0 6.1 0.00 0.12 0.12 100 1016.9
20260504193010 52 256 0.0 2.6 0.00 0.12 0.12 100 1016.9
20260504192010 52 318 0.0 0.0 0.00 0.12 0.12 100 1016.8
20260504191011 51 318 0.0 6.1 0.00 0.12 0.12 100 1016.6
20260504185010 51 271 0.0 2.6 0.00 0.12 0.12 100 1016.6
20260504184010 51 354 0.0 0.0 0.00 0.12 0.12 100 1016.6
20260504183010 51 354 0.0 0.0 0.00 0.12 0.12 100 1016.8
20260504182009 51 354 0.0 1.7 0.00 0.12 0.12 100 1016.9
20260504180009 52 345 0.0 4.3 0.00 0.12 0.12 100 1016.8
20260504174010 52 83 0.0 0.0 0.00 0.12 0.12 100 1016.4
20260504173010 51 83 0.0 0.0 0.00 0.12 0.12 100 1016.4
20260504172009 50 83 0.0 0.0 0.00 0.12 0.12 100 1016.2
20260504151010 47 83 0.0 0.0 0.02 0.12 0.12 100 1016.1
20260504141010 47 83 0.0 0.0 0.01 0.10 0.10 100 1016.0
20260504081010 50 302 0.0 4.3 0.00 0.00 0.00 100 1015.0